Change the Weather History Date:

Wednesday, July 3, 2013

  Actual Average Record
Temperature  
Mean Temperature 76 °F -  
Max Temperature 81 °F 75 °F 91 °F (2002)
Min Temperature 71 °F 59 °F 43 °F (1957)
Cooling Degree Days 10    
Growing Degree Days 26 (Base 50)    
Moisture  
Dew Point 71 °F    
Average Humidity 89    
Maximum Humidity 96    
Minimum Humidity 76    
Precipitation  
Precipitation 0.00 in - - ()
Sea Level Pressure  
Sea Level Pressure 30.21 in    
Wind  
Wind Speed 15 mph (SW)    
Max Wind Speed 21 mph    
Max Gust Speed 26 mph    
Visibility 8 miles    
Events      
Averages and records for this station are not official NWS values.
T = Trace of Precipitation, MM = Missing Value Source: NWS Daily Summary

Daily Weather History Graph

Daily Weather History Graph

Search for Another Location

Airport or City:

Trip Planner

Search our weather history database for the weather conditions in past years. The results will help you decide how hot, cold, wet, or windy it might be!

Date:

Astronomy

Jul. 03, 2013 Rise Set
Actual Time 5:11 AM EDT 8:18 PM EDT
Civil Twilight 4:37 AM EDT 8:52 PM EDT
Nautical Twilight 3:54 AM EDT 9:36 PM EDT
Astronomical Twilight 3:02 AM EDT 10:27 PM EDT
Moon 1:49 AM EDT (7/3) 4:25 PM EDT (7/3)
Length of Visible Light 16h 15m
Length of Day
15h 07m
Waning Crescent, 18% of the Moon is Illuminated
Jul 3
Waning Crescent
Jul 8
New
Jul 15
First Quarter
Jul 22
Full
Jul 29
Last Quarter

Hourly Weather History & Observations

Time (EDT) Temp. Heat Index Dew Point Humidity Pressure Visibility Wind Dir Wind Speed Gust Speed Precip Events Conditions
12:56 AM 73.0 °F - 71.1 °F 93% 30.19 in 7.0 mi SW 13.8 mph 23.0 mph N/A   Overcast
1:56 AM 72.0 °F - 70.0 °F 93% 30.19 in 7.0 mi SW 12.7 mph - N/A   Overcast
2:56 AM 72.0 °F - 70.0 °F 93% 30.19 in 8.0 mi SW 10.4 mph - N/A   Overcast
3:56 AM 72.0 °F - 70.0 °F 93% 30.19 in 8.0 mi SW 9.2 mph - N/A   Overcast
4:44 AM 71.6 °F - 69.8 °F 94% 30.20 in 5.0 mi SW 13.8 mph - N/A   Overcast
4:56 AM 71.1 °F - 70.0 °F 96% 30.20 in 4.0 mi SW 12.7 mph - N/A   Overcast
5:51 AM 71.6 °F - 69.8 °F 94% 30.21 in 2.5 mi SW 12.7 mph - N/A   Overcast
5:56 AM 71.1 °F - 70.0 °F 96% 30.22 in 1.5 mi SW 12.7 mph - N/A   Overcast
6:56 AM 72.0 °F - 70.0 °F 93% 30.22 in 10.0 mi SW 15.0 mph 21.9 mph N/A   Mostly Cloudy
7:06 AM 73.4 °F - 69.8 °F 88% 30.22 in 9.0 mi SW 11.5 mph - N/A   Overcast
7:27 AM 73.4 °F - 69.8 °F 88% 30.23 in 10.0 mi SW 16.1 mph 23.0 mph N/A   Scattered Clouds
7:56 AM 73.9 °F - 70.0 °F 87% 30.23 in 10.0 mi SW 16.1 mph - N/A   Clear
8:56 AM 77.0 °F - 70.0 °F 79% 30.23 in 10.0 mi SW 18.4 mph 25.3 mph N/A   Clear
9:56 AM 78.1 °F - 71.1 °F 79% 30.23 in 10.0 mi SW 16.1 mph 23.0 mph N/A   Clear
10:56 AM 78.1 °F - 71.1 °F 79% 30.23 in 10.0 mi SW 13.8 mph 20.7 mph N/A   Clear
11:56 AM 77.0 °F - 71.1 °F 82% 30.23 in 10.0 mi SW 13.8 mph 20.7 mph N/A   Clear
12:56 PM 80.1 °F 83.8 °F 72.0 °F 76% 30.22 in 10.0 mi SW 17.3 mph 23.0 mph N/A   Clear
1:56 PM 79.0 °F - 72.0 °F 79% 30.22 in 10.0 mi SW 18.4 mph 24.2 mph N/A   Clear
2:56 PM 80.1 °F 83.8 °F 72.0 °F 76% 30.21 in 10.0 mi SW 19.6 mph - N/A   Clear
3:56 PM 80.1 °F 83.8 °F 72.0 °F 76% 30.20 in 10.0 mi SW 18.4 mph 25.3 mph N/A   Clear
4:56 PM 79.0 °F - 71.1 °F 77% 30.19 in 10.0 mi SW 15.0 mph 24.2 mph N/A   Clear
5:56 PM 75.9 °F - 72.0 °F 87% 30.19 in 10.0 mi SW 18.4 mph 24.2 mph N/A   Clear
6:34 PM 75.2 °F - 71.6 °F 89% 30.19 in 10.0 mi SW 20.7 mph 26.5 mph N/A   Scattered Clouds
6:56 PM 75.0 °F - 72.0 °F 90% 30.19 in 10.0 mi SW 19.6 mph 25.3 mph N/A   Scattered Clouds
7:35 PM 73.4 °F - 71.6 °F 94% 30.19 in 10.0 mi SW 16.1 mph - N/A   Mostly Cloudy
7:56 PM 73.9 °F - 72.0 °F 93% 30.19 in 10.0 mi SW 15.0 mph - N/A   Overcast
8:56 PM 73.0 °F - 72.0 °F 96% 30.22 in 10.0 mi SW 16.1 mph - N/A   Overcast
9:06 PM 73.4 °F - 71.6 °F 94% 30.21 in 10.0 mi SW 16.1 mph 24.2 mph N/A   Overcast
9:56 PM 73.0 °F - 72.0 °F 96% 30.22 in 3.0 mi WSW 18.4 mph - N/A   Overcast
10:56 PM 73.0 °F - 72.0 °F 96% 30.21 in 6.0 mi SW 15.0 mph 25.3 mph N/A   Overcast
11:53 PM 73.4 °F - 71.6 °F 94% 30.21 in 10.0 mi WSW 17.3 mph 24.2 mph N/A   Overcast
11:56 PM 73.9 °F - 72.0 °F 93% 30.21 in 10.0 mi SW 19.6 mph 25.3 mph N/A   Overcast